New Haven, CT

6:37 PM EDT on May 23, 2018 (GMT -0400)
Tweed-New Haven

Weather History for KHVN - November, 2011

Change the Weather History Date:

Tuesday, November 22, 2011

  Actual Average Record
Temperature  
Mean Temperature 46 °F -  
Max Temperature 50 °F 48 °F 63 °F (1982)
Min Temperature 43 °F 35 °F 22 °F (1969)
Degree Days  
Heating Degree Days 18    
Moisture  
Dew Point 39 °F    
Average Humidity 75    
Maximum Humidity 87    
Minimum Humidity 65    
Precipitation  
Precipitation 0.41 in - - ()
Sea Level Pressure  
Sea Level Pressure 30.27 in    
Wind  
Wind Speed 8 mph (East)    
Max Wind Speed 18 mph    
Max Gust Speed 26 mph    
Visibility 8 miles    
Events Rain    
Averages and records for this station are not official NWS values.
T = Trace of Precipitation, MM = Missing Value Source: NWS Daily Summary

Daily Weather History Graph

Daily Weather History Graph

Search for Another Location

Airport or City:

Astronomy

Nov. 22, 2011 Rise Set
Actual Time 6:47 AM EST 4:27 PM EST
Civil Twilight 6:17 AM EST 4:57 PM EST
Nautical Twilight 5:43 AM EST 5:31 PM EST
Astronomical Twilight 5:10 AM EST 6:04 PM EST
Moon 3:33 AM EST (11/22) 2:25 PM EST (11/22)
Length of Visible Light 10h 40m
Length of Day
9h 39m
Waning Crescent, 9% of the Moon is Illuminated
Nov 22
Waning Crescent
Nov 25
New
Dec 2
First Quarter
Dec 10
Full
Dec 17
Last Quarter

Hourly Weather History & Observations

Time (EST) Temp. Windchill Dew Point Humidity Pressure Visibility Wind Dir Wind Speed Gust Speed Precip Events Conditions
12:53 AM 44.1 °F 40.8 °F 35.1 °F 71% 30.32 in 10.0 mi ENE 5.8 mph - N/A   Overcast
1:53 AM 43.0 °F 38.8 °F 35.1 °F 74% 30.33 in 10.0 mi NE 6.9 mph - N/A   Overcast
2:53 AM 44.6 °F 41.4 °F 33.8 °F 66% 30.33 in 10.0 mi NNE 5.8 mph - N/A   Overcast
3:53 AM 43.0 °F 38.2 °F 34.0 °F 71% 30.34 in 10.0 mi NNE 8.1 mph - N/A   Overcast
4:53 AM 43.0 °F 39.5 °F 33.1 °F 68% 30.36 in 10.0 mi North 5.8 mph - N/A   Overcast
5:53 AM 43.0 °F 39.5 °F 33.1 °F 68% 30.37 in 10.0 mi NE 5.8 mph - N/A   Overcast
6:53 AM 43.0 °F 38.8 °F 32.0 °F 65% 30.37 in 10.0 mi NNE 6.9 mph - N/A   Overcast
7:53 AM 44.1 °F 40.1 °F 33.1 °F 65% 30.39 in 10.0 mi NNE 6.9 mph - N/A   Overcast
8:53 AM 44.1 °F 40.8 °F 33.1 °F 65% 30.40 in 10.0 mi North 5.8 mph - N/A   Overcast
9:53 AM 46.0 °F 43.1 °F 35.1 °F 66% 30.40 in 10.0 mi NE 5.8 mph - N/A   Overcast
10:53 AM 46.9 °F - 37.0 °F 68% 30.38 in 10.0 mi ESE 4.6 mph - N/A   Overcast
11:53 AM 48.9 °F - 39.9 °F 71% 30.35 in 10.0 mi East 6.9 mph - N/A   Overcast
12:53 PM 48.9 °F - 39.9 °F 71% 30.32 in 10.0 mi East 8.1 mph - N/A   Overcast
1:53 PM 48.9 °F - 39.9 °F 71% 30.31 in 10.0 mi ESE 9.2 mph - N/A   Overcast
2:53 PM 50.0 °F - 39.0 °F 66% 30.30 in 10.0 mi ESE 6.9 mph - N/A   Overcast
3:53 PM 50.0 °F - 39.9 °F 68% 30.30 in 10.0 mi ESE 11.5 mph - N/A   Overcast
4:53 PM 48.2 °F - 39.2 °F 71% 30.29 in 10.0 mi ESE 9.2 mph - N/A   Overcast
5:00 PM 50.0 °F - 39.2 °F 66% 30.29 in 10.0 mi ESE 9.2 mph - N/A   Overcast
5:13 PM 50.0 °F - 39.2 °F 66% 30.29 in 10.0 mi ESE 10.4 mph 17.3 mph N/A   Overcast
5:53 PM 48.9 °F - 39.9 °F 71% 30.28 in 10.0 mi ESE 8.1 mph - N/A   Overcast
6:36 PM 48.2 °F - 41.0 °F 76% 30.27 in 7.0 mi East 6.9 mph - 0.01 in Rain Light Rain
6:53 PM 46.9 °F - 41.0 °F 80% 30.26 in 7.0 mi ENE 6.9 mph - 0.02 in Rain Light Rain
7:07 PM 46.4 °F 44.3 °F 41.0 °F 81% 30.25 in 7.0 mi ENE 4.6 mph - 0.01 in Rain Light Rain
7:51 PM 46.4 °F 43.5 °F 42.8 °F 87% 30.23 in 5.0 mi ENE 5.8 mph - 0.06 in Rain Rain
7:53 PM 46.4 °F 42.4 °F 42.8 °F 87% 30.23 in 5.0 mi East 8.1 mph - N/A Rain Rain
8:53 PM 46.0 °F 42.5 °F 42.1 °F 86% 30.21 in 6.0 mi NE 6.9 mph - 0.03 in Rain Rain
9:53 PM 48.0 °F - 43.0 °F 83% 30.18 in 5.0 mi East 10.4 mph 20.7 mph 0.11 in Rain Heavy Rain
10:11 PM 46.4 °F 41.1 °F 42.8 °F 87% 30.17 in 5.0 mi East 11.5 mph 20.7 mph 0.04 in Rain Rain
10:35 PM 48.2 °F - 44.6 °F 87% 30.14 in 5.0 mi East 13.8 mph 21.9 mph 0.09 in Rain Rain
10:50 PM 48.2 °F - 44.6 °F 87% 30.12 in 4.0 mi ESE 18.4 mph 25.3 mph 0.13 in Rain Rain
10:53 PM 48.0 °F - 44.1 °F 86% 30.12 in 4.0 mi ESE 15.0 mph 25.3 mph 0.14 in Rain Rain
11:01 PM 48.2 °F - 44.6 °F 87% 30.11 in 4.0 mi ESE 13.8 mph 23.0 mph 0.02 in Rain Rain
11:30 PM 48.2 °F - 44.6 °F 87% 30.06 in 5.0 mi East 16.1 mph 26.5 mph 0.07 in Rain Rain
11:53 PM 48.0 °F - 44.1 °F 86% 30.04 in 5.0 mi East 12.7 mph 24.2 mph 0.11 in Rain Rain